User: anonymous   Login
Location: Unspecified
(0.0000°N, 0.0000°E)
Time: 22:31:29
(UTC+00:00)
Language:

OBJECT V - Orbit

View from above orbital plane
View from above orbital plane
View from above satellite
View from above satellite

Ground track
Ground track

The orbit data is extracted from the following two-line orbital elements,

1 42844U 17042V   18110.34974126  .00000497  00000-0  54624-4 0  9998
2 42844  97.5998  15.1762 0013302  29.7292 330.4680 14.91780411 41738
Epoch (UTC): 20 April 2018 08:23:37
Eccentricity: 0.0013302
inclination: 97.5998°
perigee height: 583 km
apogee height: 601 km
right ascension of ascending node: 15.1762°
argument of perigee: 29.7292°
revolutions per day: 14.91780411
mean anomaly at epoch: 330.4680°
orbit number at epoch: 4173

The dashed part of the orbit path shows where the satellite is in the earth's shadow,  

DLR